Weather History for KNID - September, 2012

Change the Weather History Date:

Friday, September 14, 2012

  Actual Average Record
Temperature  
Mean Temperature 78 °F -  
Max Temperature 99 °F 91 °F 102 °F (2013)
Min Temperature 57 °F 64 °F 52 °F (2005)
Cooling Degree Days 12    
Growing Degree Days 28 (Base 50)    
Moisture  
Dew Point 27 °F    
Average Humidity 15    
Maximum Humidity 25    
Minimum Humidity 10    
Precipitation  
Precipitation 0.00 in - - ()
Sea Level Pressure  
Sea Level Pressure 30.05 in    
Wind  
Wind Speed 4 mph (South)    
Max Wind Speed 9 mph    
Max Gust Speed 18 mph    
Visibility 10 miles    
Events      
Averages and records for this station are not official NWS values.
T = Trace of Precipitation, MM = Missing Value Source: NWS Daily Summary

Daily Weather History Graph

Daily Weather History Graph

Search for Another Location

Airport or City:

Trip Planner

Search our weather history database for the weather conditions in past years. The results will help you decide how hot, cold, wet, or windy it might be!

Date:

Astronomy

Sep. 14, 2012 Rise Set
Actual Time 6:33 AM PDT 6:58 PM PDT
Civil Twilight 6:07 AM PDT 7:24 PM PDT
Nautical Twilight 5:37 AM PDT 7:54 PM PDT
Astronomical Twilight 5:06 AM PDT 8:24 PM PDT
Moon 5:03 AM PDT (9/14) 5:57 PM PDT (9/14)
Length of Visible Light 13h 16m
Length of Day
12h 25m
Waning Crescent, 2% of the Moon is Illuminated
Sep 14
Waning Crescent
Sep 15
New
Sep 22
First Quarter
Sep 29
Full
Oct 8
Last Quarter

Hourly Weather History & Observations

Time (PDT) Temp. Dew Point Humidity Pressure Visibility Wind Dir Wind Speed Gust Speed Precip Events Conditions
12:56 AM 70.0 °F 21.9 °F 16% 30.07 in 10.0 mi SSW 8.1 mph - N/A   Clear
1:56 AM 63.0 °F 21.9 °F 21% 30.08 in 10.0 mi Calm Calm - N/A   Clear
2:56 AM 64.9 °F 21.9 °F 19% 30.06 in 10.0 mi SW 9.2 mph - N/A   Clear
3:56 AM 62.1 °F 21.9 °F 21% 30.07 in 10.0 mi SSW 3.5 mph - N/A   Clear
4:56 AM 59.0 °F 21.0 °F 23% 30.07 in 10.0 mi Calm Calm - N/A   Clear
5:56 AM 64.0 °F 23.0 °F 21% 30.08 in 10.0 mi SW 8.1 mph - N/A   Clear
6:56 AM 57.9 °F 21.9 °F 25% 30.10 in 10.0 mi Calm Calm - N/A   Clear
7:56 AM 68.0 °F 23.0 °F 18% 30.11 in 10.0 mi Calm Calm - N/A   Clear
8:56 AM 75.9 °F 25.0 °F 15% 30.12 in 10.0 mi Calm Calm - N/A   Clear
9:56 AM 84.0 °F 25.0 °F 12% 30.13 in 10.0 mi Calm Calm - N/A   Clear
10:56 AM 89.1 °F 25.0 °F 10% 30.12 in 10.0 mi Calm Calm - N/A   Clear
11:56 AM 93.0 °F 28.0 °F 10% 30.10 in 10.0 mi Calm Calm - N/A   Clear
12:56 PM 96.1 °F 34.0 °F 11% 30.08 in 10.0 mi Variable 4.6 mph - N/A   Clear
1:56 PM 97.0 °F 35.1 °F 11% 30.05 in 10.0 mi Variable 3.5 mph 18.4 mph N/A   Clear
2:56 PM 98.1 °F 35.1 °F 11% 30.02 in 10.0 mi SE 6.9 mph - N/A   Clear
3:56 PM 96.1 °F 35.1 °F 12% 30.01 in 10.0 mi Calm Calm - N/A   Clear
4:56 PM 97.0 °F 33.1 °F 11% 29.99 in 10.0 mi SE 4.6 mph - N/A   Clear
5:56 PM 97.0 °F 30.9 °F 10% 29.98 in 10.0 mi NNE 3.5 mph - N/A   Clear
6:56 PM 91.9 °F 28.9 °F 11% 29.99 in 10.0 mi ESE 4.6 mph - N/A   Clear
7:56 PM 84.9 °F 27.0 °F 12% 29.99 in 10.0 mi ESE 5.8 mph - N/A   Clear
8:56 PM 81.0 °F 27.0 °F 14% 30.01 in 10.0 mi Calm Calm - N/A   Clear
9:56 PM 79.0 °F 28.0 °F 15% 30.02 in 10.0 mi South 8.1 mph - N/A   Clear
10:56 PM 78.1 °F 28.9 °F 17% 30.02 in 10.0 mi SSW 8.1 mph - N/A   Clear
11:56 PM 70.0 °F 28.0 °F 21% 30.04 in 10.0 mi North 3.5 mph - N/A   Clear